AUA52U LOWW-LIML

Flight info

Callsign AUA52U
Flight time 1h 6m
Altitude 34000
Route OSPEN DCT ABRUK DCT SETAL DCT DETSA/N0419F330 DCT BAKOR DCT NAXAV DCT RENTA DCT ATPED DCT LUSIL
Aircraft E195/M-SDE2E3FGIJ1RWY/LB1

Departure

Time 2026-04-20 13:39
Airport Vienna International Airport (LOWW)

Arrival

Time 2026-04-20 14:45
Airport Milano Linate Airport (LIML)
Time Latitude Longitude Altitude Speed Heading
2026-04-20 13:14 48.11587 16.56630 616 ft 0 kts 206°
2026-04-20 13:31 48.11566 16.56615 633 ft 8 kts 206°
2026-04-20 13:32 48.11507 16.56609 609 ft 9 kts 163°
2026-04-20 13:32 48.11444 16.56601 613 ft 10 kts 165°
2026-04-20 13:32 48.11394 16.56709 612 ft 14 kts 115°
2026-04-20 13:32 48.11351 16.56841 618 ft 15 kts 116°
2026-04-20 13:33 48.11305 16.56982 615 ft 15 kts 116°
2026-04-20 13:33 48.11258 16.57127 616 ft 14 kts 116°
2026-04-20 13:33 48.11211 16.57234 612 ft 10 kts 152°
2026-04-20 13:33 48.11156 16.57219 607 ft 5 kts 205°
2026-04-20 13:34 48.11151 16.57215 611 ft 0 kts 208°
2026-04-20 13:37 48.11150 16.57214 611 ft 1 kts 208°
2026-04-20 13:37 48.11105 16.57181 611 ft 12 kts 205°
2026-04-20 13:37 48.11061 16.57086 607 ft 12 kts 280°
2026-04-20 13:37 48.11074 16.57041 615 ft 0 kts 296°
2026-04-20 13:38 48.11077 16.57030 613 ft 9 kts 295°
2026-04-20 13:38 48.11214 16.56613 611 ft 80 kts 296°
2026-04-20 13:38 48.11555 16.55566 613 ft 143 kts 296°
2026-04-20 13:38 48.12039 16.54027 894 ft 176 kts 296°
2026-04-20 13:39 48.12396 16.52159 1646 ft 200 kts 272°
2026-04-20 13:39 48.12039 16.50139 2474 ft 205 kts 248°
2026-04-20 13:39 48.11137 16.48513 3163 ft 214 kts 216°
2026-04-20 13:39 48.09736 16.47670 3962 ft 217 kts 205°
2026-04-20 13:40 48.08388 16.46660 4624 ft 218 kts 221°
2026-04-20 13:40 48.07167 16.45172 5053 ft 239 kts 224°
2026-04-20 13:40 48.05840 16.43558 5625 ft 253 kts 223°
2026-04-20 13:40 48.04428 16.41876 6205 ft 264 kts 224°
2026-04-20 13:41 48.02979 16.40166 6986 ft 266 kts 223°
2026-04-20 13:41 48.01521 16.38453 7763 ft 266 kts 223°
2026-04-20 13:41 48.00086 16.36752 8488 ft 267 kts 225°
2026-04-20 13:41 47.98882 16.34695 9202 ft 262 kts 243°
2026-04-20 13:42 47.98155 16.32212 9867 ft 264 kts 251°
2026-04-20 13:42 47.96781 16.26908 10786 ft 286 kts 251°
2026-04-20 13:42 47.96043 16.24118 11357 ft 292 kts 251°
2026-04-20 13:43 47.95290 16.21290 12077 ft 295 kts 251°
2026-04-20 13:43 47.94527 16.18446 12872 ft 296 kts 251°
2026-04-20 13:43 47.93757 16.15583 13634 ft 299 kts 251°
2026-04-20 13:43 47.92979 16.12703 14393 ft 300 kts 251°
2026-04-20 13:44 47.92196 16.09811 15177 ft 301 kts 251°
2026-04-20 13:44 47.91411 16.06912 15935 ft 302 kts 251°
2026-04-20 13:44 47.90616 16.04001 16739 ft 304 kts 251°
2026-04-20 13:44 47.89822 16.01071 17493 ft 305 kts 250°
2026-04-20 13:45 47.89028 15.98172 18263 ft 307 kts 251°
2026-04-20 13:45 47.88226 15.95215 18897 ft 309 kts 251°
2026-04-20 13:45 47.87416 15.92241 19533 ft 311 kts 251°
2026-04-20 13:45 47.86604 15.89239 20115 ft 313 kts 252°
2026-04-20 13:46 47.85788 15.86213 20699 ft 316 kts 251°
2026-04-20 13:46 47.84948 15.83175 21218 ft 319 kts 251°
2026-04-20 13:46 47.84109 15.80109 21776 ft 322 kts 252°
2026-04-20 13:46 47.83264 15.77010 22320 ft 325 kts 252°
2026-04-20 13:47 47.82404 15.73879 22803 ft 327 kts 252°
2026-04-20 13:47 47.81531 15.70738 23491 ft 330 kts 252°
2026-04-20 13:47 47.80656 15.67565 23938 ft 334 kts 253°
2026-04-20 13:47 47.79781 15.64375 24507 ft 334 kts 252°
2026-04-20 13:48 47.78893 15.61174 25051 ft 336 kts 253°
2026-04-20 13:48 47.78019 15.57948 25588 ft 337 kts 253°
2026-04-20 13:48 47.77146 15.54704 26107 ft 339 kts 253°
2026-04-20 13:48 47.76256 15.51439 26642 ft 341 kts 253°
2026-04-20 13:49 47.75350 15.48157 27075 ft 345 kts 253°
2026-04-20 13:49 47.74440 15.44873 27628 ft 344 kts 254°
2026-04-20 13:49 47.73527 15.41572 28043 ft 347 kts 253°
2026-04-20 13:49 47.72603 15.38265 28498 ft 349 kts 254°
2026-04-20 13:50 47.71670 15.34922 28954 ft 351 kts 254°
2026-04-20 13:50 47.70733 15.31587 29570 ft 349 kts 255°
2026-04-20 13:50 47.69806 15.28276 30182 ft 345 kts 255°
2026-04-20 13:50 47.68889 15.25044 30577 ft 344 kts 255°
2026-04-20 13:51 47.67972 15.21764 30950 ft 345 kts 255°
2026-04-20 13:51 47.67046 15.18464 31329 ft 347 kts 255°
2026-04-20 13:51 47.66116 15.15151 31692 ft 348 kts 255°
2026-04-20 13:51 47.65188 15.11834 31947 ft 349 kts 254°
2026-04-20 13:52 47.64246 15.08528 32310 ft 348 kts 255°
2026-04-20 13:52 47.63303 15.05228 32747 ft 347 kts 255°
2026-04-20 13:52 47.62373 15.01924 33087 ft 347 kts 255°
2026-04-20 13:52 47.61440 14.98613 33386 ft 349 kts 255°
2026-04-20 13:53 47.60497 14.95295 33643 ft 351 kts 254°
2026-04-20 13:53 47.59549 14.91964 33943 ft 350 kts 255°
2026-04-20 13:53 47.57632 14.85234 34028 ft 362 kts 254°
2026-04-20 13:54 47.55628 14.78241 34081 ft 375 kts 254°
2026-04-20 13:54 47.53590 14.71123 33977 ft 375 kts 254°
2026-04-20 13:55 47.51542 14.63994 34072 ft 379 kts 254°
2026-04-20 13:55 47.49474 14.56835 33998 ft 375 kts 255°
2026-04-20 13:56 47.47433 14.49762 34009 ft 374 kts 255°
2026-04-20 13:56 47.45396 14.42739 34007 ft 376 kts 254°
2026-04-20 13:57 47.43338 14.35652 34006 ft 375 kts 254°
2026-04-20 13:57 47.41273 14.28579 34008 ft 375 kts 254°
2026-04-20 13:58 47.39206 14.21517 34016 ft 376 kts 254°
2026-04-20 13:58 47.37143 14.14453 34023 ft 375 kts 255°
2026-04-20 13:59 47.35062 14.07378 33990 ft 376 kts 253°
2026-04-20 13:59 47.32973 14.00292 34002 ft 377 kts 254°
2026-04-20 14:00 47.30882 13.93170 34030 ft 380 kts 253°
2026-04-20 14:00 47.28773 13.86049 34004 ft 379 kts 253°
2026-04-20 14:01 47.26664 13.78946 34004 ft 379 kts 253°
2026-04-20 14:01 47.24582 13.71901 34029 ft 378 kts 254°
2026-04-20 14:02 47.22483 13.64810 34045 ft 379 kts 254°
2026-04-20 14:02 47.20362 13.57725 33991 ft 379 kts 253°
2026-04-20 14:03 47.18222 13.50628 34045 ft 380 kts 253°
2026-04-20 14:03 47.16077 13.43510 34016 ft 380 kts 252°
2026-04-20 14:04 47.13920 13.36403 34028 ft 380 kts 252°
2026-04-20 14:04 47.11757 13.29304 34009 ft 381 kts 252°
2026-04-20 14:05 47.09590 13.22206 33998 ft 383 kts 253°
2026-04-20 14:05 47.07406 13.15081 33998 ft 382 kts 252°
2026-04-20 14:06 47.05229 13.07970 34004 ft 382 kts 252°
2026-04-20 14:06 47.03049 13.00902 33997 ft 380 kts 252°
2026-04-20 14:07 47.00869 12.93837 33982 ft 381 kts 251°
2026-04-20 14:07 46.98679 12.86766 33979 ft 381 kts 251°
2026-04-20 14:08 46.96489 12.79722 33954 ft 379 kts 251°
2026-04-20 14:08 46.94319 12.72711 33956 ft 380 kts 251°
2026-04-20 14:09 46.92112 12.65669 33955 ft 382 kts 251°
2026-04-20 14:09 46.89896 12.58613 33934 ft 382 kts 251°
2026-04-20 14:10 46.87696 12.51581 33961 ft 382 kts 250°
2026-04-20 14:10 46.85459 12.44504 33951 ft 385 kts 250°
2026-04-20 14:11 46.83225 12.37405 33952 ft 385 kts 250°
2026-04-20 14:11 46.80976 12.30296 33947 ft 385 kts 250°
2026-04-20 14:12 46.78628 12.23245 33952 ft 388 kts 248°
2026-04-20 14:12 46.76179 12.16291 34344 ft 381 kts 248°
2026-04-20 14:13 46.74970 12.12885 34580 ft 381 kts 248°
2026-04-20 14:13 46.73757 12.09380 33965 ft 388 kts 248°
2026-04-20 14:13 46.72542 12.05879 33440 ft 386 kts 248°
2026-04-20 14:13 46.71326 12.02391 32922 ft 386 kts 248°
2026-04-20 14:14 46.68918 11.95512 33023 ft 383 kts 248°
2026-04-20 14:14 46.66497 11.88569 32898 ft 385 kts 248°
2026-04-20 14:15 46.64061 11.81641 32870 ft 385 kts 248°
2026-04-20 14:15 46.61631 11.74741 32884 ft 386 kts 248°
2026-04-20 14:16 46.59169 11.67807 32873 ft 386 kts 248°
2026-04-20 14:16 46.56706 11.60897 32862 ft 385 kts 248°
2026-04-20 14:17 46.54244 11.53994 32854 ft 385 kts 248°
2026-04-20 14:17 46.51773 11.47099 32870 ft 386 kts 248°
2026-04-20 14:18 46.49297 11.40215 32863 ft 384 kts 248°
2026-04-20 14:18 46.46823 11.33345 32854 ft 386 kts 248°
2026-04-20 14:19 46.45607 11.29951 32868 ft 373 kts 249°
2026-04-20 14:19 46.44472 11.26621 32856 ft 365 kts 249°
2026-04-20 14:19 46.42246 11.20112 32993 ft 357 kts 249°
2026-04-20 14:20 46.40014 11.13631 33028 ft 360 kts 249°
2026-04-20 14:20 46.37776 11.07157 33046 ft 359 kts 249°
2026-04-20 14:21 46.35549 11.00730 32993 ft 359 kts 249°
2026-04-20 14:21 46.33307 10.94281 32995 ft 360 kts 249°
2026-04-20 14:22 46.31055 10.87820 32985 ft 359 kts 249°
2026-04-20 14:22 46.28822 10.81398 32989 ft 355 kts 250°
2026-04-20 14:23 46.26600 10.74964 32523 ft 362 kts 249°
2026-04-20 14:23 46.25467 10.71714 32094 ft 361 kts 249°
2026-04-20 14:23 46.24336 10.68485 31701 ft 359 kts 249°
2026-04-20 14:24 46.23215 10.65269 31309 ft 357 kts 250°
2026-04-20 14:24 46.22099 10.62070 30929 ft 356 kts 249°
2026-04-20 14:24 46.20983 10.58880 30550 ft 356 kts 249°
2026-04-20 14:24 46.19870 10.55676 30184 ft 358 kts 250°
2026-04-20 14:25 46.18748 10.52461 29768 ft 359 kts 250°
2026-04-20 14:25 46.17623 10.49239 29345 ft 361 kts 249°
2026-04-20 14:25 46.16490 10.46002 28915 ft 361 kts 250°
2026-04-20 14:25 46.15359 10.42771 28446 ft 362 kts 249°
2026-04-20 14:26 46.14211 10.39528 27911 ft 363 kts 249°
2026-04-20 14:26 46.13064 10.36292 27358 ft 361 kts 249°
2026-04-20 14:26 46.11940 10.33121 26847 ft 358 kts 249°
2026-04-20 14:26 46.10814 10.29947 26311 ft 353 kts 249°
2026-04-20 14:27 46.09698 10.26822 25798 ft 350 kts 248°
2026-04-20 14:27 46.08596 10.23708 25298 ft 348 kts 248°
2026-04-20 14:27 46.07496 10.20623 24800 ft 345 kts 249°
2026-04-20 14:27 46.06416 10.17545 24313 ft 342 kts 248°
2026-04-20 14:28 46.05295 10.14507 23841 ft 346 kts 244°
2026-04-20 14:28 46.04352 10.12585 23531 ft 350 kts 237°
2026-04-20 14:28 46.02534 10.10179 22979 ft 361 kts 222°
2026-04-20 14:28 46.00411 10.08239 22422 ft 362 kts 217°
2026-04-20 14:29 45.98260 10.06366 21895 ft 360 kts 219°
2026-04-20 14:29 45.96179 10.04480 21388 ft 358 kts 219°
2026-04-20 14:29 45.94078 10.02585 20869 ft 356 kts 219°
2026-04-20 14:29 45.91945 10.00722 20341 ft 352 kts 217°
2026-04-20 14:30 45.89896 9.98918 19862 ft 349 kts 218°
2026-04-20 14:30 45.87831 9.97110 19367 ft 347 kts 217°
2026-04-20 14:30 45.85751 9.95382 18879 ft 344 kts 217°
2026-04-20 14:30 45.83687 9.93655 18413 ft 342 kts 217°
2026-04-20 14:31 45.81641 9.91941 17890 ft 340 kts 216°
2026-04-20 14:31 45.79600 9.90230 17352 ft 339 kts 216°
2026-04-20 14:31 45.77579 9.88550 17059 ft 332 kts 216°
2026-04-20 14:31 45.75581 9.86900 16810 ft 332 kts 215°
2026-04-20 14:32 45.73580 9.85241 16532 ft 333 kts 216°
2026-04-20 14:32 45.71580 9.83583 16255 ft 332 kts 216°
2026-04-20 14:32 45.69576 9.81910 15755 ft 336 kts 216°
2026-04-20 14:32 45.67558 9.80228 15215 ft 335 kts 215°
2026-04-20 14:33 45.65542 9.78557 14699 ft 334 kts 215°
2026-04-20 14:33 45.63544 9.76904 14181 ft 330 kts 215°
2026-04-20 14:33 45.61565 9.75266 13674 ft 328 kts 215°
2026-04-20 14:33 45.59602 9.73643 13111 ft 325 kts 214°
2026-04-20 14:34 45.57681 9.72060 12547 ft 310 kts 214°
2026-04-20 14:34 45.55854 9.70557 11994 ft 297 kts 214°
2026-04-20 14:34 45.54087 9.69098 11450 ft 290 kts 214°
2026-04-20 14:34 45.52347 9.67663 11042 ft 288 kts 213°
2026-04-20 14:35 45.50618 9.66237 10534 ft 286 kts 213°
2026-04-20 14:35 45.48904 9.64828 10080 ft 282 kts 213°
2026-04-20 14:35 45.47214 9.63439 9700 ft 280 kts 213°
2026-04-20 14:35 45.45528 9.62048 9306 ft 279 kts 213°
2026-04-20 14:36 45.43870 9.60678 8913 ft 279 kts 213°
2026-04-20 14:36 45.42170 9.59285 8517 ft 278 kts 213°
2026-04-20 14:36 45.40499 9.57914 8131 ft 277 kts 212°
2026-04-20 14:36 45.38835 9.56555 7751 ft 275 kts 212°
2026-04-20 14:37 45.37204 9.55219 7349 ft 274 kts 212°
2026-04-20 14:37 45.35568 9.53881 6927 ft 270 kts 212°
2026-04-20 14:37 45.33946 9.52557 6501 ft 268 kts 212°
2026-04-20 14:37 45.32348 9.51252 6066 ft 260 kts 212°
2026-04-20 14:38 45.30801 9.50033 5623 ft 249 kts 210°
2026-04-20 14:38 45.29311 9.48867 5176 ft 240 kts 211°
2026-04-20 14:38 45.27980 9.47530 4730 ft 231 kts 230°
2026-04-20 14:38 45.27288 9.45552 4264 ft 222 kts 255°
2026-04-20 14:39 45.26882 9.43474 3767 ft 215 kts 253°
2026-04-20 14:39 45.26478 9.41518 3520 ft 200 kts 253°
2026-04-20 14:39 45.26102 9.39666 3267 ft 193 kts 253°
2026-04-20 14:39 45.25734 9.37839 3018 ft 193 kts 253°
2026-04-20 14:40 45.25387 9.36057 3031 ft 186 kts 259°
2026-04-20 14:40 45.25552 9.34264 3002 ft 188 kts 299°
2026-04-20 14:40 45.26503 9.33023 3034 ft 189 kts 328°
2026-04-20 14:40 45.27595 9.31966 3052 ft 191 kts 323°
2026-04-20 14:41 45.28668 9.30857 3066 ft 191 kts 323°
2026-04-20 14:41 45.29749 9.29755 3067 ft 193 kts 325°
2026-04-20 14:41 45.31016 9.29030 2677 ft 203 kts 354°
2026-04-20 14:41 45.32394 9.29036 2470 ft 192 kts
2026-04-20 14:42 45.33694 9.28925 2251 ft 182 kts 353°
2026-04-20 14:42 45.34902 9.28723 2019 ft 169 kts 355°
2026-04-20 14:42 45.36038 9.28623 1798 ft 159 kts 356°
2026-04-20 14:42 45.37116 9.28515 1595 ft 152 kts 355°
2026-04-20 14:43 45.38167 9.28388 1409 ft 152 kts 355°
2026-04-20 14:43 45.39214 9.28277 1192 ft 150 kts 355°
2026-04-20 14:43 45.40262 9.28164 1004 ft 154 kts 356°
2026-04-20 14:43 45.41333 9.28056 782 ft 152 kts 355°
2026-04-20 14:44 45.42369 9.27937 598 ft 150 kts 356°
2026-04-20 14:44 45.43421 9.27820 401 ft 152 kts 356°
2026-04-20 14:44 45.44425 9.27714 362 ft 129 kts 356°
2026-04-20 14:44 45.45088 9.27645 362 ft 54 kts 356°
2026-04-20 14:45 45.45290 9.27649 357 ft 24 kts 17°
2026-04-20 14:45 45.45407 9.27728 360 ft 8 kts 27°
2026-04-20 14:45 45.45449 9.27776 363 ft 8 kts 56°
2026-04-20 14:45 45.45494 9.27813 363 ft 8 kts
2026-04-20 14:46 45.45552 9.27814 359 ft 9 kts
2026-04-20 14:46 45.45616 9.27815 359 ft 10 kts
2026-04-20 14:46 45.45681 9.27816 359 ft 8 kts
2026-04-20 14:46 45.45736 9.27817 359 ft 7 kts
2026-04-20 14:47 45.45769 9.27822 359 ft 4 kts 26°
2026-04-20 14:47 45.45774 9.27853 365 ft 4 kts 88°
2026-04-20 14:47 45.45774 9.27886 361 ft 3 kts 90°
2026-04-20 14:48 45.45774 9.27894 360 ft 0 kts 90°